Temp
-9 -9 -9 -9 -9 -9 -9 -9 -9 -9 -10 -10 -10 -10 -10 -10 -10 -10 -10 -11 -11 -11 -11 -11 -11 -11 -11 -11 -11 -11 -11 -10 -10 -10 -10 -10 -9 -9 -9 -9 -9 -9
-9 -9 -9 -9 -9 -9 -9 -9 -10 -10 -10 -10 -10 -10 -10 -10 -11 -11 -11 -11 -11 -11 -11 -11 -11 -11 -11 -11 -11 -11 -11 -11 -11 -10 -10 -10 -10 -10 -9 -9 -9 -9
-9 -9 -10 -10 -10 -10 -10 -10 -10 -10 -10 -10 -11 -11 -11 -11 -11 -11 -11 -11 -12 -12 -12 -12 -12 -12 -12 -12 -12 -12 -12 -12 -11 -11 -11 -11 -10 -10 -10 -10 -10 -9
-10 -10 -10 -10 -10 -10 -10 -10 -11 -11 -11 -11 -11 -11 -11 -11 -11 -12 -12 -12 -12 -12 -12 -12 -13 -13 -13 -13 -13 -13 -13 -12 -12 -12 -12 -11 -11 -11 -10 -10 -10 -10
-10 -11 -11 -10 -10 -11 -11 -11 -11 -11 -11 -12 -12 -12 -12 -12 -12 -12 -12 -12 -12 -13 -13 -13 -13 -13 -13 -13 -13 -13 -13 -13 -13 -13 -13 -12 -12 -12 -11 -11 -11 -11
-11 -11 -11 -11 -11 -11 -11 -11 -11 -12 -12 -12 -12 -12 -12 -12 -12 -12 -12 -13 -13 -13 -13 -13 -13 -13 -13 -13 -14 -14 -14 -14 -14 -14 -13 -13 -13 -13 -12 -12 -12 -11
-11 -11 -11 -11 -11 -11 -11 -12 -12 -12 -12 -12 -12 -12 -12 -12 -13 -13 -13 -13 -13 -13 -13 -13 -13 -14 -14 -14 -14 -14 -14 -14 -14 -14 -14 -14 -14 -13 -13 -13 -12 -12
-11 -11 -11 -11 -12 -12 -12 -12 -12 -12 -12 -12 -12 -12 -13 -13 -13 -13 -13 -13 -13 -13 -13 -14 -14 -14 -14 -14 -14 -14 -14 -14 -14 -14 -14 -14 -14 -14 -14 -13 -13 -13
-11 -11 -12 -12 -12 -12 -12 -12 -12 -12 -12 -12 -13 -13 -13 -13 -13 -13 -13 -13 -13 -13 -14 -14 -14 -14 -14 -14 -14 -14 -14 -15 -15 -14 -14 -14 -14 -14 -14 -14 -14 -13
-12 -12 -12 -12 -12 -12 -12 -12 -13 -13 -13 -13 -13 -13 -13 -13 -13 -13 -13 -13 -14 -14 -14 -14 -14 -14 -14 -14 -14 -15 -15 -15 -15 -15 -15 -15 -14 -14 -14 -14 -14 -14
-12 -12 -12 -12 -12 -12 -13 -13 -13 -13 -13 -13 -13 -13 -13 -13 -13 -13 -14 -14 -14 -14 -14 -14 -14 -14 -14 -14 -15 -15 -15 -15 -15 -15 -15 -15 -15 -15 -15 -15 -15 -14
-12 -12 -12 -12 -12 -12 -13 -13 -13 -13 -13 -13 -13 -13 -13 -13 -13 -13 -14 -14 -14 -14 -14 -14 -14 -14 -15 -15 -15 -15 -15 -15 -15 -15 -15 -15 -15 -15 -15 -15 -15 -15
-12 -12 -12 -12 -12 -12 -13 -13 -13 -13 -13 -13 -13 -13 -13 -13 -13 -14 -14 -14 -14 -14 -14 -14 -14 -15 -15 -15 -15 -15 -16 -16 -16 -16 -16 -15 -15 -15 -15 -15 -15 -15
-12 -12 -12 -12 -12 -13 -13 -13 -13 -13 -13 -13 -13 -13 -13 -13 -13 -14 -14 -14 -14 -14 -14 -14 -14 -15 -15 -15 -15 -16 -16 -16 -16 -16 -16 -16 -16 -16 -15 -15 -15 -15
-12 -12 -12 -12 -13 -13 -13 -13 -13 -13 -13 -14 -14 -14 -14 -14 -14 -14 -14 -14 -14 -14 -14 -14 -14 -15 -15 -15 -16 -16 -16 -16 -16 -16 -16 -16 -16 -16 -16 -16 -16 -16
-12 -12 -12 -12 -13 -13 -13 -13 -13 -13 -14 -14 -14 -14 -14 -14 -14 -14 -14 -14 -14 -14 -14 -14 -14 -15 -15 -15 -16 -16 -16 -16 -16 -16 -16 -16 -16 -16 -16 -16 -16 -16
-12 -12 -12 -13 -13 -13 -13 -13 -13 -13 -14 -14 -14 -14 -14 -14 -14 -14 -14 -14 -14 -14 -14 -14 -14 -15 -15 -15 -16 -16 -16 -16 -16 -16 -16 -16 -16 -16 -16 -16 -16 -16
-12 -12 -12 -13 -13 -13 -13 -13 -13 -13 -14 -14 -14 -14 -14 -14 -14 -14 -14 -14 -14 -14 -14 -14 -14 -15 -15 -15 -16 -16 -16 -16 -16 -16 -16 -16 -16 -16 -16 -16 -16 -16
-12 -12 -12 -13 -13 -13 -13 -13 -13 -13 -14 -14 -14 -14 -14 -14 -14 -14 -14 -14 -14 -14 -14 -14 -14 -15 -15 -15 -16 -16 -16 -16 -16 -16 -16 -16 -16 -16 -16 -16 -16 -16
-12 -12 -12 -13 -13 -13 -13 -13 -13 -13 -14 -14 -14 -14 -14 -14 -14 -14 -14 -14 -14 -14 -14 -14 -14 -15 -15 -15 -16 -16 -16 -16 -16 -16 -16 -16 -16 -16 -16 -16 -16 -16
-12 -12 -13 -13 -13 -13 -13 -13 -13 -13 -14 -14 -14 -14 -14 -14 -14 -14 -14 -14 -14 -14 -14 -14 -14 -15 -15 -15 -15 -16 -16 -16 -16 -16 -16 -16 -16 -16 -16 -16 -16 -16
-12 -12 -13 -13 -13 -13 -13 -13 -13 -13 -14 -14 -14 -14 -14 -14 -15 -15 -15 -15 -14 -14 -14 -14 -14 -15 -15 -15 -15 -16 -16 -16 -16 -16 -16 -16 -16 -16 -16 -16 -17 -17
-12 -12 -13 -13 -13 -13 -13 -13 -14 -14 -14 -14 -14 -14 -14 -14 -15 -15 -15 -15 -15 -15 -15 -15 -15 -15 -15 -15 -15 -15 -16 -16 -16 -16 -16 -16 -16 -16 -16 -16 -16 -17
-12 -12 -13 -13 -13 -13 -13 -13 -14 -14 -14 -14 -14 -14 -14 -15 -15 -15 -15 -15 -15 -15 -15 -15 -15 -15 -15 -15 -15 -15 -16 -16 -16 -16 -16 -16 -16 -16 -16 -16 -16 -17
-12 -12 -12 -13 -13 -13 -13 -14 -14 -14 -14 -14 -14 -14 -15 -15 -15 -15 -15 -15 -15 -15 -15 -15 -15 -15 -15 -15 -15 -15 -16 -16 -16 -16 -16 -16 -16 -16 -16 -16 -16 -17
-12 -12 -12 -13 -13 -13 -13 -14 -14 -14 -14 -14 -14 -14 -15 -15 -15 -15 -15 -15 -15 -15 -15 -15 -15 -15 -15 -15 -15 -16 -16 -16 -16 -16 -16 -16 -16 -16 -16 -17 -16 -17
Height
5858 5855 5853 5851 5848 5846 5843 5841 5839 5836 5834 5832 5830 5828 5826 5824 5822 5820 5818 5816 5814 5812 5811 5809 5808 5808 5807 5807 5806 5806 5806 5806 5806 5806 5806 5806 5806 5806 5805 5805 5805 5806
5856 5853 5851 5848 5846 5843 5841 5838 5835 5833 5831 5829 5826 5824 5822 5820 5818 5816 5814 5812 5810 5808 5806 5805 5804 5803 5802 5801 5800 5800 5800 5800 5801 5801 5801 5801 5801 5801 5801 5801 5801 5801
5853 5851 5848 5846 5843 5840 5837 5835 5832 5830 5828 5825 5822 5820 5818 5817 5814 5812 5810 5808 5806 5804 5802 5801 5799 5798 5797 5796 5795 5794 5794 5794 5794 5795 5795 5795 5796 5796 5796 5796 5796 5796
5850 5848 5845 5842 5839 5837 5834 5831 5829 5826 5824 5821 5819 5817 5815 5813 5810 5808 5806 5804 5802 5800 5798 5797 5795 5794 5792 5791 5790 5789 5789 5788 5788 5788 5789 5789 5790 5790 5790 5790 5790 5790
5847 5844 5841 5838 5836 5833 5831 5828 5825 5823 5820 5818 5816 5813 5811 5809 5807 5805 5802 5800 5798 5796 5795 5793 5791 5790 5788 5787 5786 5785 5784 5784 5783 5783 5783 5783 5784 5784 5784 5784 5785 5785
5843 5840 5837 5835 5833 5830 5827 5825 5822 5820 5817 5815 5813 5810 5808 5806 5804 5802 5800 5798 5795 5794 5792 5790 5788 5787 5785 5784 5783 5782 5781 5780 5779 5779 5778 5778 5778 5779 5779 5779 5779 5779
5839 5837 5834 5832 5830 5827 5825 5822 5820 5817 5815 5812 5810 5808 5806 5804 5801 5799 5797 5795 5793 5791 5789 5787 5786 5784 5782 5781 5780 5778 5778 5777 5776 5775 5775 5774 5774 5774 5774 5773 5773 5774
5836 5834 5832 5830 5827 5825 5823 5820 5817 5815 5813 5810 5808 5806 5804 5802 5799 5797 5795 5793 5791 5789 5787 5785 5783 5782 5780 5778 5777 5775 5774 5773 5772 5772 5771 5771 5771 5770 5770 5769 5769 5769
5834 5832 5830 5827 5825 5823 5820 5818 5815 5813 5811 5809 5806 5804 5802 5800 5797 5795 5793 5791 5789 5787 5785 5784 5782 5780 5778 5776 5774 5773 5771 5770 5769 5768 5768 5767 5767 5767 5766 5766 5765 5765
5832 5830 5827 5825 5823 5820 5818 5816 5814 5811 5809 5807 5804 5802 5800 5798 5795 5793 5791 5790 5788 5786 5784 5782 5780 5778 5776 5774 5772 5770 5768 5767 5766 5765 5764 5764 5764 5763 5763 5762 5762 5762
5830 5828 5825 5823 5821 5819 5816 5814 5812 5810 5807 5805 5803 5800 5798 5796 5794 5792 5790 5788 5786 5784 5782 5780 5778 5776 5774 5772 5769 5768 5766 5764 5763 5762 5761 5761 5760 5760 5759 5759 5759 5758
5828 5826 5824 5821 5819 5817 5815 5813 5811 5808 5806 5804 5801 5799 5797 5795 5793 5791 5789 5787 5785 5782 5780 5778 5776 5773 5771 5769 5767 5765 5763 5762 5760 5759 5758 5758 5757 5756 5756 5756 5755 5755
5827 5825 5822 5820 5818 5816 5814 5812 5810 5808 5805 5803 5801 5798 5796 5794 5792 5790 5788 5786 5783 5781 5779 5776 5774 5771 5769 5767 5765 5763 5761 5759 5758 5757 5756 5755 5754 5753 5753 5753 5752 5752
5826 5823 5821 5819 5817 5815 5813 5811 5809 5807 5804 5802 5800 5798 5796 5793 5791 5789 5787 5785 5782 5780 5778 5775 5773 5770 5767 5765 5763 5761 5759 5757 5756 5754 5753 5752 5751 5750 5750 5750 5749 5749
5824 5822 5820 5819 5817 5815 5812 5810 5808 5806 5804 5801 5799 5797 5795 5792 5790 5788 5786 5784 5781 5779 5776 5774 5771 5768 5765 5763 5761 5759 5757 5755 5754 5752 5751 5749 5748 5748 5747 5747 5746 5746
5823 5822 5820 5818 5816 5814 5812 5809 5807 5805 5803 5800 5798 5796 5793 5791 5789 5787 5785 5782 5780 5777 5775 5772 5769 5766 5763 5761 5758 5757 5755 5753 5752 5750 5749 5747 5746 5745 5744 5744 5743 5743
5823 5821 5820 5818 5815 5813 5811 5809 5806 5804 5801 5799 5797 5794 5792 5790 5788 5786 5783 5781 5779 5776 5773 5771 5768 5765 5762 5759 5756 5755 5753 5751 5750 5748 5747 5745 5744 5743 5742 5741 5741 5740
5822 5821 5819 5817 5815 5813 5810 5808 5805 5803 5800 5798 5795 5793 5791 5789 5787 5784 5782 5780 5777 5775 5772 5769 5767 5763 5761 5758 5755 5753 5751 5749 5748 5746 5745 5743 5742 5741 5739 5739 5738 5738
5822 5821 5819 5816 5814 5812 5809 5807 5804 5802 5800 5797 5795 5792 5790 5788 5785 5783 5781 5779 5776 5774 5771 5768 5766 5763 5760 5757 5754 5752 5750 5748 5746 5744 5742 5741 5740 5739 5737 5736 5736 5735
5822 5820 5818 5815 5813 5811 5809 5806 5804 5801 5799 5796 5794 5791 5789 5787 5784 5782 5780 5777 5775 5773 5770 5767 5765 5762 5759 5756 5754 5751 5749 5747 5744 5742 5741 5739 5738 5736 5735 5734 5733 5733
5821 5819 5817 5815 5812 5810 5808 5805 5803 5800 5798 5795 5793 5791 5788 5786 5783 5781 5779 5776 5774 5772 5769 5767 5764 5762 5759 5756 5754 5751 5748 5746 5743 5741 5739 5737 5736 5734 5733 5732 5731 5730
5820 5818 5816 5814 5811 5809 5807 5804 5802 5799 5797 5795 5792 5790 5788 5785 5783 5780 5778 5775 5773 5771 5769 5766 5764 5761 5759 5756 5753 5751 5748 5745 5742 5740 5738 5736 5734 5732 5731 5729 5729 5728
5819 5817 5815 5813 5810 5808 5805 5803 5801 5798 5796 5794 5791 5789 5786 5784 5782 5779 5777 5775 5772 5770 5768 5766 5763 5761 5758 5756 5753 5750 5748 5745 5742 5739 5737 5735 5733 5731 5729 5727 5726 5725
5818 5816 5814 5811 5809 5807 5804 5802 5800 5797 5795 5793 5790 5788 5785 5783 5781 5778 5776 5774 5772 5769 5767 5765 5763 5760 5758 5755 5753 5750 5747 5745 5741 5739 5737 5734 5732 5730 5728 5726 5724 5723
5817 5815 5813 5810 5808 5806 5804 5801 5799 5797 5794 5792 5789 5787 5784 5782 5780 5777 5775 5773 5771 5769 5766 5764 5762 5759 5757 5754 5752 5749 5747 5744 5741 5738 5736 5734 5731 5729 5727 5725 5723 5721
5816 5814 5812 5809 5807 5805 5803 5801 5798 5796 5793 5791 5788 5786 5784 5781 5779 5776 5774 5772 5770 5768 5766 5763 5761 5759 5756 5754 5751 5749 5746 5744 5741 5738 5735 5733 5730 5728 5726 5724 5722 5720
Wind_Speed
28 29 30 31 32 33 35 36 37 38 39 40 41 41 41 41 40 39 38 36 35 34 34 34 33 33 32 30 29 29 28 28 28 28 28 28 29 29 29 30 30 30
28 29 31 32 34 35 36 37 39 39 40 41 41 41 40 38 37 36 35 35 35 35 35 35 35 34 34 33 32 30 30 29 29 29 29 29 29 29 29 30 30 30
29 30 32 33 34 35 36 37 38 38 39 39 38 37 37 36 35 35 35 36 35 35 35 34 34 33 32 31 30 30 29 29 29 29 29 29 30 30 30 30 30 30
30 31 32 33 34 34 35 35 35 35 35 35 35 35 35 35 35 34 34 33 33 32 31 30 30 29 28 27 27 26 26 26 26 26 27 28 29 30 31 31 31 31
30 31 32 33 33 34 34 34 34 35 34 34 33 33 32 31 31 30 29 29 28 28 27 27 26 26 25 25 25 24 24 23 23 22 22 24 25 28 30 31 32 32
29 31 32 32 33 33 33 33 32 31 30 30 29 28 27 27 26 26 25 25 25 24 24 24 24 24 24 24 24 23 22 22 21 21 20 20 21 23 26 29 31 32
29 30 31 31 30 29 28 27 26 26 25 25 25 24 24 23 23 23 23 23 23 23 23 23 23 23 23 23 23 22 22 21 21 20 19 18 18 18 20 24 28 30
28 27 26 25 24 23 22 22 22 23 23 23 23 22 22 22 21 21 21 21 22 22 22 22 22 22 22 22 22 22 21 21 20 19 19 18 17 16 16 19 23 27
23 21 21 20 20 21 21 22 22 22 22 22 21 21 21 21 20 20 20 21 21 21 21 21 21 22 22 22 22 21 21 20 20 19 19 17 16 15 15 16 18 21
19 19 19 20 22 22 22 22 22 22 22 21 21 20 20 20 19 19 19 20 20 20 21 21 21 22 22 22 21 21 21 20 20 19 19 18 17 16 15 15 15 17
19 20 21 23 23 23 23 22 22 22 21 21 20 20 19 19 19 19 19 20 20 21 22 22 22 22 22 22 21 21 20 20 19 19 19 18 17 16 15 14 14 15
22 22 23 23 23 23 23 22 22 21 21 20 20 19 19 19 19 19 20 21 22 23 24 24 24 24 24 23 22 21 20 19 19 19 18 18 17 17 16 14 14 14
22 22 23 23 23 23 23 22 22 22 21 21 20 19 19 19 19 20 21 22 23 24 25 25 26 25 24 23 22 20 19 18 18 18 18 17 17 17 16 15 14 13
22 23 23 23 23 23 23 23 23 22 22 21 20 20 19 19 19 20 21 22 23 24 25 26 26 26 25 23 21 20 18 17 17 17 17 17 17 17 16 15 14 13
23 24 24 23 23 23 23 23 23 23 22 22 21 20 19 19 19 20 22 23 23 24 25 26 27 27 26 23 21 20 18 17 16 16 16 16 16 16 16 15 15 14
23 23 23 23 23 24 24 24 24 23 23 23 22 21 20 19 19 20 22 23 24 25 26 27 28 28 26 24 21 20 18 17 16 15 15 16 16 16 15 15 15 14
22 22 23 23 23 23 23 24 24 24 24 23 22 22 21 20 19 20 22 23 24 25 26 27 28 28 27 24 22 20 19 18 17 16 15 15 16 15 15 15 15 15
21 22 22 22 23 23 24 24 24 24 24 23 23 22 21 20 20 20 22 23 24 24 26 27 27 28 27 25 23 21 20 19 18 17 16 15 15 15 15 15 15 15
20 21 21 22 23 24 24 24 24 24 24 24 23 23 22 21 21 21 21 22 23 24 25 26 27 27 27 25 24 22 21 20 19 18 18 17 16 15 15 15 15 15
19 20 21 22 23 24 23 23 23 23 23 24 23 23 22 22 21 21 21 22 23 23 24 25 26 26 26 26 24 23 22 21 20 20 19 18 17 16 16 15 15 14
19 20 22 23 24 24 23 23 23 23 23 23 23 23 22 22 22 21 21 21 22 22 23 24 24 25 25 25 24 23 22 21 20 20 20 19 18 17 16 16 15 15
20 21 22 23 24 24 23 22 22 23 23 23 23 23 22 22 21 21 21 21 21 21 22 22 23 23 23 23 23 22 21 20 20 20 19 19 18 17 17 16 15 15
20 21 22 23 24 24 23 22 22 23 23 24 23 23 23 22 21 21 20 20 20 20 20 21 21 21 22 22 23 22 21 20 20 20 20 19 17 17 17 16 16 15
20 21 22 23 23 23 23 22 23 23 24 24 24 24 23 23 22 20 20 20 19 19 19 20 20 20 21 21 22 22 22 21 21 22 21 19 18 17 16 16 16 15
19 20 21 22 23 23 23 23 23 23 24 24 25 24 23 23 22 21 20 19 19 19 19 19 19 20 20 20 21 21 22 22 22 24 23 21 20 18 17 16 16 15
19 20 21 22 22 22 23 23 23 24 24 25 25 24 23 23 22 21 20 19 19 19 18 19 19 19 20 20 21 21 21 22 22 24 24 23 22 21 19 18 16 15
Wind_Direction
317 315 314 314 315 314 313 311 309 309 308 307 306 305 304 304 304 304 305 305 306 306 306 305 304 304 302 300 297 294 290 287 284 282 280 278 276 274 272 270 269 267
313 313 314 313 312 309 307 306 305 305 305 304 303 303 303 303 304 304 304 305 305 305 305 304 304 304 303 301 299 295 291 287 283 280 278 276 275 273 271 270 268 267
312 312 311 308 306 304 304 304 304 303 303 303 303 303 303 304 303 304 304 304 305 305 305 305 305 304 303 302 300 297 293 289 285 280 275 273 271 270 269 268 267 266
311 310 308 306 306 306 306 306 305 304 304 304 304 304 304 305 305 305 306 307 308 308 309 309 308 306 305 303 301 299 297 293 288 283 276 271 267 265 265 265 264 263
313 311 310 309 309 308 308 308 307 307 306 306 307 307 308 309 310 311 311 312 313 313 313 312 311 309 307 305 303 302 300 298 294 289 283 274 267 262 259 259 259 259
314 312 310 309 310 309 309 309 309 309 310 311 313 314 315 316 317 318 318 319 319 318 318 317 315 313 311 309 307 305 303 301 299 296 291 284 275 266 259 256 255 254
314 312 311 312 312 312 312 313 314 316 318 320 320 321 321 322 322 323 324 324 324 324 323 322 320 318 316 313 310 307 305 302 301 299 296 292 286 277 266 258 255 253
315 315 316 317 318 319 321 323 325 326 325 325 325 325 325 326 327 328 329 329 328 328 327 325 323 321 318 316 313 310 307 303 301 299 298 296 292 286 276 265 258 255
321 324 326 327 329 331 332 332 331 330 328 328 328 329 330 331 331 332 331 331 330 329 328 325 323 321 318 316 314 311 309 305 302 299 296 295 293 289 283 273 263 258
335 337 337 337 338 337 336 335 334 332 332 332 332 333 333 334 335 335 336 336 335 334 332 330 327 324 320 318 315 312 309 307 304 300 296 293 291 288 284 279 271 263
345 344 343 342 342 341 340 340 340 339 339 338 338 338 339 341 342 344 344 344 343 341 339 337 334 330 327 323 319 315 311 308 305 302 298 293 290 287 284 280 275 268
348 348 347 348 349 349 349 349 348 348 347 346 346 346 347 348 349 349 349 347 346 344 342 340 337 334 331 327 324 319 315 310 306 303 300 295 291 287 284 281 275 269
352 353 354 355 356 355 354 353 353 352 351 349 348 347 347 348 349 350 349 348 346 344 342 340 337 334 330 326 324 321 318 313 308 304 300 296 292 289 285 282 278 271
356 357 357 357 356 354 354 354 353 351 349 347 345 344 343 345 347 348 348 347 345 344 342 340 338 335 330 324 321 320 318 314 309 305 301 296 292 288 286 283 280 275
357 358 358 355 355 355 355 355 353 351 348 346 344 342 341 341 344 347 347 346 345 344 343 342 341 338 334 327 321 318 317 315 310 305 301 298 293 287 285 282 279 276
358 358 356 354 355 355 355 354 352 350 349 347 345 343 341 340 341 343 345 345 345 345 346 345 344 342 340 334 327 321 318 317 313 308 302 298 295 290 285 281 277 274
358 356 353 354 354 353 353 352 350 350 350 348 347 345 343 341 339 340 342 344 346 347 347 347 347 347 346 342 336 330 324 320 316 313 307 300 296 293 288 283 279 274
356 353 352 352 352 351 351 350 350 351 351 350 349 347 345 343 340 339 341 343 345 347 349 350 350 351 351 348 343 338 333 328 322 317 313 307 301 296 292 287 282 277
352 350 350 350 349 349 349 349 350 350 350 350 349 348 347 344 341 340 340 342 345 347 350 351 353 354 354 352 348 344 339 335 330 325 319 314 308 303 298 293 287 281
348 348 348 348 347 346 347 347 348 349 349 349 348 347 347 345 343 341 340 342 345 348 350 352 354 356 356 355 353 349 344 340 336 332 327 322 316 311 305 301 295 289
346 346 346 346 345 345 345 346 346 347 347 347 347 346 345 344 343 341 340 342 344 347 350 352 354 357 358 357 357 355 351 345 340 336 332 329 324 318 311 305 300 296
344 344 344 343 343 343 344 344 346 346 346 346 346 345 344 342 342 341 340 340 342 345 348 350 353 356 358 359 0 1 358 351 345 340 336 334 330 323 317 309 300 296
341 342 341 341 342 343 343 344 345 346 346 346 345 344 343 341 340 340 339 339 341 343 346 348 350 353 357 359 1 4 2 356 349 345 343 341 336 329 322 315 306 297
338 339 339 340 342 343 343 344 345 345 345 344 344 343 342 340 339 339 338 337 338 340 343 345 347 350 353 357 360 2 3 0 355 352 352 350 344 336 329 322 314 305
335 337 338 339 342 343 342 344 345 345 344 343 343 342 341 340 338 338 337 336 336 338 340 342 345 347 349 353 357 359 0 0 358 357 359 358 351 344 338 330 322 313
334 336 337 339 341 341 342 344 345 344 344 343 342 342 341 340 338 338 338 336 334 335 338 340 342 344 346 348 352 354 356 358 357 357 0 1 356 351 346 340 332 322